Regional Weather Roundup
Issued by NWS

Home | Current Version | Previous Version | Graphics & Text | Print | Product List | Glossary On
Versions: 1 2 3 4 5 6 7 8 9 10 11 12 13 14 15 16 17 18 19 20 21 22 23 24 25 26 27 28 29 30 31 32 33 34 35 36 37 38 39 40 41 42 43 44 45 46 47 48 49 50
000
ASUS43 KBIS 230410
RWRND

NORTH DAKOTA REGIONAL WEATHER ROUNDUP
NATIONAL WEATHER SERVICE BISMARCK ND
1000 PM CST WED FEB 22 2017

NOTE: "FAIR" INDICATES FEW OR NO CLOUDS BELOW 12,000 FEET WITH NO
SIGNIFICANT WEATHER AND/OR OBSTRUCTIONS TO VISIBILITY.


NDZ001>003-009>011-017-230500-
NORTHWEST NORTH DAKOTA

CITY           SKY/WX    TMP DP  RH WIND       PRES   REMARKS
WILLISTON      MOCLDY    27  24  89 CALM      30.01R
MINOT          CLOUDY    32  26  78 W9        29.97R
MINOT AFB      CLOUDY    31  28  87 W8        29.96S
$$

NDZ018>021-031>035-040>046-230500-
SOUTHWEST NORTH DAKOTA

CITY           SKY/WX    TMP DP  RH WIND       PRES   REMARKS
BISMARCK       CLOUDY    33  28  81 N8        29.99R
DICKINSON      CLOUDY    27  23  85 NW3       29.95S
GARRISON         N/A     25  23  92 NW7       29.97S WCI  17
HETTINGER ARPT LGT SNOW  28  26  92 NE7       29.97R FOG
$$

NDZ004>008-012>016-024-026-027-054-230500-
NORTHEAST NORTH DAKOTA

CITY           SKY/WX    TMP DP  RH WIND       PRES   REMARKS
GRAND FORKS    PTCLDY    30  22  72 NW9       29.95R
GRND FRKS AFB  CLEAR     29  25  84 N9        29.96R
DEVILS LAKE    CLOUDY    30  26  85 NW10      29.95R
$$

NDZ022-023-025-028>030-036>039-047>053-230500-
SOUTHEAST NORTH DAKOTA

CITY           SKY/WX    TMP DP  RH WIND       PRES   REMARKS
FARGO          CLEAR     32  28  85 N12       29.92R
JAMESTOWN      FAIR      26  23  88 NW9       29.95R WCI  17
$$




USA.gov is the U.S. government's official web portal to all federal, state and local government web resources and services.